Weather History for King Khaled, Saudi Arabia

Change the Weather History Date:

Monday, November 5, 2012

  Actual Average Record
Temperature  
Mean Temperature 71 °F -  
Max Temperature 86 °F 77 °F 93 °F (1999)
Min Temperature 56 °F 54 °F 53 °F (2007)
Cooling Degree Days 6    
Growing Degree Days 21 (Base 50)    
Moisture  
Dew Point 36 °F    
Average Humidity 24    
Maximum Humidity 38    
Minimum Humidity 11    
Precipitation  
Precipitation 0.00 in - - ()
Sea Level Pressure  
Sea Level Pressure 30.04 in    
Wind  
Wind Speed 0 mph ()    
Max Wind Speed 6 mph    
Max Gust Speed -    
Visibility 6.0 miles    
Events      
Averages and records for this station are not official NWS values.
T = Trace of Precipitation, MM = Missing Value Source: Averaged Metar Reports

Daily Weather History Graph

Daily Weather History Graph

Search for Another Location

Airport:

Trip Planner

Search our weather history database for the weather conditions in past years. The results will help you decide how hot, cold, wet, or windy it might be!

Date:

Astronomy

Nov. 05, 2012 Rise Set
Actual Time 6:03 AM AST 5:10 PM AST
Civil Twilight 5:39 AM AST 5:33 PM AST
Nautical Twilight 5:12 AM AST 6:01 PM AST
Astronomical Twilight 4:45 AM AST 6:27 PM AST
Moon 10:26 PM AST (11/5) 11:05 AM AST (11/5)
Length of Visible Light 11h 54m
Length of Day
11h 07m
Waning Gibbous, 66% of the Moon is Illuminated
Nov 5
Waning Gibbous
Nov 7
Last Quarter
Nov 14
New
Nov 20
First Quarter
Nov 28
Full

Hourly Weather History & Observations

Time (AST) Temp. Dew Point Humidity Pressure Visibility Wind Dir Wind Speed Gust Speed Precip Events Conditions
12:00 AM 64 °F 28 °F 15% 29.99 in 6 mi Calm Calm - -  
12:00 AM 64.4 °F 28.4 °F 26% 30.06 in - Calm Calm - N/A   Clear
1:00 AM 62.6 °F 23.0 °F 22% 30.06 in - Calm Calm - N/A   Clear
2:00 AM 62.6 °F 23.0 °F 22% 30.04 in - Calm Calm - N/A   Clear
3:00 AM 61 °F 25 °F 14% 29.97 in 6 mi Calm Calm - -  
3:00 AM 60.8 °F 24.8 °F 25% 30.04 in - Calm Calm - N/A   Clear
4:00 AM 59.0 °F 24.8 °F 27% 30.04 in - Calm Calm - N/A   Clear
5:00 AM 57.2 °F 26.6 °F 31% 30.04 in - Calm Calm - N/A   Clear
6:00 AM 58 °F 27 °F 18% 30.01 in 6 mi Calm Calm - -  
6:00 AM 57.2 °F 26.6 °F 31% 30.06 in - Calm Calm - N/A   Clear
7:00 AM 60.8 °F 24.8 °F 25% 30.09 in - Calm Calm - N/A   Clear
8:00 AM 69.8 °F 30.2 °F 23% 30.09 in - Calm Calm - N/A   Clear
9:00 AM 73 °F 45 °F 25% 30.03 in 6 mi Calm Calm - -  
9:00 AM 73.4 °F 44.6 °F 36% 30.09 in - Calm Calm - N/A   Clear
10:00 AM 78.8 °F 44.6 °F 30% 30.09 in - SSE 2.3 mph - N/A   Clear
11:00 AM 82.4 °F 48.2 °F 30% 30.09 in - Calm Calm - N/A   Clear
12:00 PM 84 °F 45 °F 16% 29.98 in 6 mi Calm Calm - -  
12:00 PM 84.2 °F 44.6 °F 25% 30.06 in - Calm Calm - N/A   Clear
1:00 PM 84.2 °F 44.6 °F 25% 30.04 in - SE 3.5 mph - N/A   Clear
2:00 PM 86.0 °F 44.6 °F 23% 30.01 in - East 3.5 mph - N/A   Clear
3:00 PM 85 °F 39 °F 11% 29.94 in 6 mi Calm Calm - -  
3:00 PM 84.2 °F 39.2 °F 20% 30.01 in - Calm Calm - N/A   Clear
4:00 PM 84.2 °F 39.2 °F 20% 30.04 in - Calm Calm - N/A   Clear
5:00 PM 82.4 °F 44.6 °F 26% 30.04 in - Calm Calm - N/A   Clear
6:00 PM 76 °F 46 °F 24% 29.98 in 6 mi Calm Calm - -  
6:00 PM 75.2 °F 46.4 °F 36% 30.04 in - Calm Calm - N/A   Clear
7:00 PM 73.4 °F 46.4 °F 38% 30.06 in - Calm Calm - N/A   Clear
8:00 PM 75.2 °F 42.8 °F 31% 30.06 in - Calm Calm - N/A   Clear
9:00 PM 74 °F 32 °F 12% 29.98 in 6 mi East 5.8 mph - -  
9:00 PM 73.4 °F 32.0 °F 22% 30.06 in - East 5.8 mph - N/A   Clear
10:00 PM 71.6 °F 32.0 °F 23% 30.06 in - ENE 3.5 mph - N/A   Clear
11:00 PM 68.0 °F 30.2 °F 24% 30.06 in - Calm Calm - N/A   Clear